Location: Luna
(33.8188°N, 108.9564°W)
Time: 06:42:02
(UTC+00:00)

Hubble Space Telescope - Visible Passes

Search period start: 09 December 2022 00:00
Search period end: 19 December 2022 00:00
Orbit: 530 x 534 km, 28.5° (Epoch: 08 December)

Date Brightness Start Highest point End Pass type
(mag) Time Alt. Az. Time Alt. Az. Time Alt. Az.
09 Dec 4.0 11:13:02 10° ESE 11:13:02 10° ESE 11:13:08 10° ESE visible
09 Dec 2.1 12:48:15 16° SW 12:51:01 34° S 12:54:44 10° ESE visible
10 Dec 1.9 12:36:32 24° SW 12:38:18 36° S 12:42:04 10° ESE visible
11 Dec 1.7 12:24:44 33° SSW 12:25:36 38° S 12:29:24 10° ESE visible
12 Dec 1.7 12:12:53 39° S 12:12:53 39° S 12:16:42 10° ESE visible
13 Dec 2.1 12:00:58 34° SSE 12:00:58 34° SSE 12:03:58 10° ESE visible
13 Dec 2.4 13:37:22 10° WSW 13:40:50 27° SSW 13:44:18 10° SE visible
14 Dec 2.7 11:49:03 26° SE 11:49:03 26° SE 11:51:14 10° ESE visible
14 Dec 2.5 13:24:46 10° WSW 13:28:05 24° SSW 13:31:23 10° SE visible
15 Dec 3.2 11:37:06 19° SE 11:37:06 19° SE 11:38:28 10° ESE visible
15 Dec 2.6 13:12:18 10° WSW 13:15:18 21° SSW 13:18:23 10° SSE visible
16 Dec 3.8 11:25:09 13° SE 11:25:09 13° SE 11:25:40 10° ESE visible
16 Dec 2.8 13:00:21 13° SW 13:02:32 18° SSW 13:05:19 10° SSE visible
17 Dec 2.9 12:48:24 13° SW 12:49:43 15° SSW 12:52:07 10° SSE visible
18 Dec 3.0 12:36:29 12° SSW 12:36:54 13° SSW 12:38:42 10° S visible
